Location: Nasgenstadt
(48.2786°N, 9.7553°E)
Time: 15:05:30
(UTC+02:00)

ISS - Pass Details

Date: 22 May 2021
Orbit: 419 x 422 km, 51.6° (Epoch: 25 June)

Event Time Altitude Azimuth Distance (km) Brightness Sun altitude
Rises 22:49:14 0° 283° (WNW) 2,372 0.9 -13.6°
Reaches altitude 10° 22:51:23 10° 290° (WNW) 1,508 -0.1 -13.8°
Maximum altitude 22:54:40 46° 5° (N) 575 -2.7 -14.1°
Drops below altitude 10° 22:57:57 10° 81° (E) 1,508 -1.2 -14.4°
Enters shadow 22:58:17 - 82° (E) 1,637 -1.0 -14.4°
